Regional Weather Roundup
Issued by NWS

Home | Current Version | Previous Version | Graphics & Text | Print | Product List | Glossary On
Versions: 1 2 3 4 5 6 7 8 9 10 11 12 13 14 15 16 17 18 19 20 21 22 23 24 25 26 27 28 29 30 31 32 33 34 35 36 37 38 39 40 41 42 43 44 45 46 47 48 49 50
000
ASUS45 KCYS 282310
RWRWY

WYOMING REGIONAL WEATHER ROUNDUP
NATIONAL WEATHER SERVICE CHEYENNE WY
400 PM MST SAT FEB 28 2015

NOTE:  "FAIR" INDICATES FEW OR NO CLOUDS BELOW 12,000 FEET
WITH NO SIGNIFICANT WEATHER AND/OR OBSTRUCTIONS TO VISIBILITY.

WYZ001-010000-
YELLOWSTONE NATIONAL PARK

CITY           SKY/WX    TMP DP  RH WIND       PRES   REMARKS
LK YELLOWSTONE   N/A     21   6  52 E5        29.80R WCI  15
W YELLOWSTONE  NOT AVBL

$$
WYZ002>013-054>058-071-098>099-010000-
NORTHERN WYOMING

CITY           SKY/WX    TMP DP  RH WIND       PRES   REMARKS
JACKSON        MOSUNNY   25  12  58 VRB6      29.79S WCI  18
CODY           PTSUNNY   19  10  68 N7        29.98S WCI  10
GREYBULL       PTSUNNY   27   8  44 SW3       30.02S
WORLAND        CLOUDY    25  10  53 N3        30.01S
SHERIDAN       FAIR      19   7  59 CALM      30.08S
BUFFALO        FAIR      15   7  70 N5        30.01F WCI   8
GILLETTE       FAIR      19   8  62 N9        30.04S WCI   8
HULETT         MOCLDY    19   9  63 SW3       30.06S
NEWCASTLE      FAIR      23   9  54 NW13      30.04S WCI  11

$$
WYZ014>020-022>026-101>103-010000-
CENTRAL WYOMING

CITY           SKY/WX    TMP DP  RH WIND       PRES   REMARKS
BIG PINEY      CLOUDY    26  16  65 NE15      29.79R WCI  14
PINEDALE       MOCLDY    25  16  68 NW9       29.80R WCI  15
DUBOIS         CLOUDY    18  10  73 S9        29.82R WCI   6
LANDER         CLOUDY    20   9  62 N5        29.92S WCI  13
RIVERTON       FAIR      22   8  55 NE6       29.94R WCI  14
CASPER         FAIR      21   9  59 NE14      29.95S WCI   8
DOUGLAS        PTSUNNY   23   9  55 NE7       29.99S WCI  15

$$
WYZ021-027>030-104>119-010000-
SOUTHERN WYOMING

CITY           SKY/WX    TMP DP  RH WIND       PRES   REMARKS
EVANSTON       CLOUDY    28  17  63 E14       29.72S WCI  17
KEMMERER       FAIR      30  14  51 NE16      29.74S WCI  19
FORT BRIDGER   MOCLDY    31  18  60 E8        29.77R WCI  23
ROCK SPRINGS   PTSUNNY   23  12  62 NE16G26   29.78R WCI  10
DIXON          FAIR      36  16  43 N14       29.75S WCI  27
RAWLINS        FAIR      25   8  48 NE20      29.80S WCI  11
SARATOGA       FAIR      32  14  47 MISG      29.76S
LARAMIE        FAIR      18   9  68 S20       29.79R WCI   2
CHEYENNE       PTSUNNY   21  11  65 VRB6      29.90R WCI  13
TORRINGTON     PTSUNNY   30  10  43 NE9       29.99S WCI  22
PINE BLUFFS    FAIR      27  14  59 E8        29.95S WCI  18

$$


USA.gov is the U.S. government's official web portal to all federal, state and local government web resources and services.